Location: Austin
(30.3000°N, 97.7500°W)
Time: 10:44:18
(UTC-05:00)

COSMOS 2428 - Pass Details

Date: 03 April 2024
Orbit: 844 x 856 km, 70.9° (Epoch: 22 April)

Event Time Altitude Azimuth Distance (km) Brightness Sun altitude
Exits shadow 05:21:20 28° 176° (S) 1,537 3.8 -24.9°
Maximum altitude 05:24:16 61° 106° (ESE) 964 3.1 -24.3°
Drops below altitude 10° 05:29:52 10° 28° (NNE) 2,483 5.8 -23.2°
Sets 05:32:21 0° 25° (NNE) 3,420 6.5 -22.7°
